User: anonymous   Login
Location: Brno
(49.2000°N, 16.6330°E)
Time: 11:23:27
(UTC+02:00)
Language:

Cosmos 1603 - Orbit

View from above orbital plane
View from above orbital plane
View from above satellite
View from above satellite

Ground track
Ground track

The orbit data is extracted from the following two-line orbital elements,

1 15333U 84106A   17265.96983970 -.00000076 +00000-0 -15312-4 0  9997
2 15333 071.0257 247.6183 0017760 053.1641 307.1107 14.14065209701842
Epoch (UTC): 22 September 2017 23:16:34
Eccentricity: 0.0017760
inclination: 71.0257°
perigee height: 832 km
apogee height: 858 km
right ascension of ascending node: 247.6183°
argument of perigee: 53.1641°
revolutions per day: 14.14065209
mean anomaly at epoch: 307.1107°
orbit number at epoch: 70184

The dashed part of the orbit path shows where the satellite is in the earth's shadow,  

DLR